Regional Weather Roundup
Issued by NWS

Home | Current Version | Previous Version | Graphics & Text | Print | Product List | Glossary On
Versions: 1 2 3 4 5 6 7 8 9 10 11 12 13 14 15 16 17 18 19 20 21 22 23 24 25 26 27 28 29 30 31 32 33 34 35 36 37 38 39 40 41 42 43 44 45 46 47 48 49 50
000
ASUS43 KLSX 260007
RWRMO

WEATHER SUMMARY FOR MISSOURI
NATIONAL WEATHER SERVICE SPRINGFIELD MO
600 PM CST TUE NOV 25 2014

NOTE: "FAIR" INDICATES FEW OR NO CLOUDS BELOW 12,000 FEET WITH NO
       SIGNIFICANT WEATHER AND/OR OBSTRUCTIONS TO VISIBILITY.
       CURRENT SKY AND/OR WEATHER CONDITIONS ARE NOT AVAILABLE FOR
       CHILLICOTHE AND FARMINGTON.

MOZ001>031-035>038-043-044-053-054-260100-
...NORTHERN AND WESTERN MISSOURI...

CITY           SKY/WX    TMP DP  RH WIND       PRES   REMARKS
KANSAS CTY INT MOCLDY    31  19  61 S9        30.07F WCI  23
6HR MIN TEMP:  31; 6HR MAX TEMP:  42;

KANSAS C DTWN  PTCLDY    38  18  44 S7        30.08F
6HR MIN TEMP:  37; 6HR MAX TEMP:  44;

LEE`S SUMMIT   CLEAR     37  17  44 S6        30.09F
6HR MIN TEMP:  36; 6HR MAX TEMP:  42;

ST JOSEPH      MOCLDY    35  19  52 S9        30.06F WCI  28
6HR MIN TEMP:  34; 6HR MAX TEMP:  42;

CHILLICOTHE      N/A     32  17  54 S3        30.11S
6HR MIN TEMP:  32; 6HR MAX TEMP:  40;

KIRKSVILLE     CLEAR     29  17  61 S6        30.11F WCI  23
6HR MIN TEMP:  29; 6HR MAX TEMP:  36;


$$
MOZ066>068-077>081-088>096-101>105-260100-
...SOUTHWEST MISSOURI...

CITY           SKY/WX    TMP DP  RH WIND       PRES   REMARKS
SPRINGFIELD    CLEAR     33  19  56 CALM      30.12S
6HR MIN TEMP:  33; 6HR MAX TEMP:  45;

JOPLIN         CLEAR     38  19  46 SW5       30.14S
6HR MIN TEMP:  38; 6HR MAX TEMP:  45;


$$
MOZ032>034-039>042-045>050-055>058-069>072-260100-
...CENTRAL MISSOURI...

CITY           SKY/WX    TMP DP  RH WIND       PRES   REMARKS
COLUMBIA       CLEAR     35  14  42 W3        30.14R
6HR MIN TEMP:  35; 6HR MAX TEMP:  40;

JEFFERSON CITY CLEAR     33  18  53 CALM      30.15S
6HR MIN TEMP:  31; 6HR MAX TEMP:  42;

ROLLA          CLEAR     28  20  71 CALM      30.12S
6HR MIN TEMP:  27; 6HR MAX TEMP:  40;

SEDALIA        CLEAR     35  17  47 S5        30.13F
6HR MIN TEMP:  34; 6HR MAX TEMP:  41;

WHITEMAN AFB   CLEAR     32  17  53 S7        30.12S WCI  26
WARRENSBURG    CLEAR     36  14  41 S5        30.12S
OSAGE BEACH    CLEAR     34  16  47 CALM      30.13S

$$
MOZ051-052-059>065-260100-
...EAST CENTRAL MISSOURI...

CITY           SKY/WX    TMP DP  RH WIND       PRES   REMARKS
ST LOUIS INTL  PTCLDY    38  21  50 CALM      30.17R
6HR MIN TEMP:  36; 6HR MAX TEMP:  42;

SPIRIT OF STL  CLEAR     31  23  72 CALM      30.16R
6HR MIN TEMP:  31; 6HR MAX TEMP:  40;

ST CHARLES     CLEAR     32  27  81 SE3       30.17R
6HR MIN TEMP:  32; 6HR MAX TEMP:  39;


$$
MOZ072>076-082>087-097>100-106>115-260100-
...SOUTH CENTRAL AND SOUTHEAST MISSOURI...

CITY           SKY/WX    TMP DP  RH WIND       PRES   REMARKS
CAPE GIRARDEAU CLEAR     37  27  67 E3        30.18R
6HR MIN TEMP:  36; 6HR MAX TEMP:  44;

FARMINGTON     CLEAR     36  18  48 CALM      30.17R
6HR MIN TEMP:  36; 6HR MAX TEMP:  43;

POPLAR BLUFF   CLEAR     39  25  57 CALM      30.18R
6HR MIN TEMP:  39; 6HR MAX TEMP:  48;

WEST PLAINS    CLEAR     32  19  58 CALM      30.15R
6HR MIN TEMP:  32; 6HR MAX TEMP:  45;


$$


USA.gov is the U.S. government's official web portal to all federal, state and local government web resources and services.